Regional Weather Roundup
Issued by NWS State College, PA

Home | Current Version | Previous Version | Text Only | Print | Product List | Glossary On
Versions: 1 2 3 4 5 6 7 8 9 10 11 12 13 14 15 16 17 18 19 20 21 22 23 24 25 26 27 28 29 30 31 32 33 34 35 36 37 38 39 40 41 42 43 44 45 46 47 48 49 50
000
ASUS41 KCTP 311410
RWRCTP

REGIONAL WEATHER ROUNDUP
NATIONAL WEATHER SERVICE STATE COLLEGE PA
1000 AM EDT FRI OCT 31 2014

Note: "fair" indicates few or no clouds below 12,000 feet with no
significant weather and/or obstructions to visibility.

* = STATION THAT DOES NOT REPORT PRECIPITATION /E.G. RAIN...SNOW...ETC/
    THUNDER OR FOG.

PAZ002>004-007>009-013>016-020>023-029>032-311500-
WESTERN PENNSYLVANIA

CITY           SKY/WX    TMP DP  RH WIND       PRES   REMARKS
ERIE           CLOUDY    46  37  71 S7        29.93F
MEADVILLE      CLOUDY    43  37  79 S5        29.92F
FRANKLIN*      CLOUDY    41  36  81 S6        29.94F
NEW CASTLE       N/A     44  40  86 CALM      29.95F
BEAVER COUNTY  CLOUDY    43  37  81 S5        29.94F
BUTLER*        CLOUDY    43  36  75 S3        29.96F
PITTSBURGH INT CLOUDY    44  38  79 S3        29.95S
PITTSBURGH     CLOUDY    45  35  68 S5        29.94F
INDIANA*       CLOUDY    45  39  81 SW3       29.98F
LATROBE        NOT AVBL
WASHINGTON CO* CLOUDY    45  36  70 CALM      29.96F
$$

PAZ004>006-010>012-017>019-024>028-033>037-041-042-045-046-049>053-311500-
CENTRAL PENNSYLVANIA

CITY           SKY/WX    TMP DP  RH WIND       PRES   REMARKS
BRADFORD       CLOUDY    38  35  89 SE3       29.92F
DUBOIS         CLOUDY    41  38  89 SE3       29.93F
CLEARFIELD     CLOUDY    40  36  86 NE5       29.96F
JOHNSTOWN      CLOUDY    42  35  76 S5        29.93S
ALTOONA        CLOUDY    44  39  82 CALM      29.96S
STATE COLLEGE  CLOUDY    41  36  81 VRB3      29.98S
WILLIAMSPORT   CLOUDY    41  34  76 CALM      30.00F
SELINSGROVE    CLOUDY    43  36  76 N3        30.01F
FT INDIANTOWN  CLOUDY    45  34  66 N1        30.01F
CAPITAL CITY   CLOUDY    47  35  63 E7        30.01F
HARRISBURG     CLOUDY    47  35  63 E6        30.00F
YORK           CLOUDY    47  36  65 E7        30.00S
$$

PAZ038>040-043-044-047-048-054-055-060>062-067>071-311500-
EASTERN PENNSYLVANIA

CITY           SKY/WX    TMP DP  RH WIND       PRES   REMARKS
SCRANTON       MOSUNNY   41  32  70 N5        30.00F
MOUNT POCONO   SUNNY     42  30  62 E7        29.97F
ALLENTOWN      SUNNY     42  33  70 CALM      30.02F
QUAKERTOWN*    SUNNY     43  36  75 NE3       30.01F
READING        SUNNY     42  35  76 CALM      30.01F
LANCASTER      CLOUDY    46  33  60 E7        30.00F
COATESVILLE    MOSUNNY   45  34  65 NE5       30.00F
POTTSTOWN      SUNNY     43  34  70 NE5       30.02F
BLUE BELL      SUNNY     41  37  87 CALM      30.00F
DOYLESTOWN     MOSUNNY   41  35  79 N6        30.00F
WILLOW GROVE   NOT AVBL
NORTH PHILA    MOSUNNY   48  35  60 NE10      30.01F
PHILADELPHIA   PTSUNNY   49  36  61 NE8       30.00F
$$



USA.gov is the U.S. government's official web portal to all federal, state and local government web resources and services.